LUCH-5A

Last updated on Tue Sep 22 2026 00:03:12 GMT+0000 (Coordinated Universal Time)

1 37951U 11074B 26264.63055169 -.00000047 00000+0 00000+0 0 9993 2 37951 8.9914 72.3683 0004137 126.8975 195.2364 1.00274162 54013
UTC large
Height (km)
Speed (km/s)
/
Latitude / Longitude
Inclination (degrees)
Orbital Period (minutes)
Azimuth
Elevation
Range (km)
Doppler Factor

Next 0 passes for location: London (51.5072 / 0.1276)

No passes found over London.
LUCH-5A